| time (UTC) | temp F | wind direction | speed MPH | gust MPH | rain 1hr in | rain 24hr in | rain mn in | humidity % | barometer mb |
| 20260906133129 | 35 | 247 | 0.0 | 0.0 | 0.00 | 0.00 | 0.00 | 88 | 1020.0 |
| 20260906132131 | 35 | 247 | 0.0 | 0.0 | 0.00 | 0.00 | 0.00 | 89 | 1019.9 |
| 20260906131130 | 35 | 247 | 0.0 | 0.0 | 0.00 | 0.00 | 0.00 | 89 | 1019.9 |
| 20260906124232 | 35 | 247 | 0.0 | 0.0 | 0.00 | 0.00 | 0.00 | 90 | 1019.7 |
| 20260906124130 | 35 | 247 | 0.0 | 0.0 | 0.00 | 0.00 | 0.00 | 89 | 1019.7 |
| 20260906123228 | 35 | 247 | 0.0 | 0.0 | 0.00 | 0.00 | 0.00 | 90 | 1019.8 |
| 20260906122129 | 35 | 247 | 0.0 | 0.0 | 0.00 | 0.00 | 0.00 | 90 | 1019.7 |
| 20260906121130 | 35 | 247 | 0.0 | 0.0 | 0.00 | 0.00 | 0.00 | 90 | 1019.8 |
| 20260906120228 | 36 | 247 | 0.0 | 0.0 | 0.00 | 0.00 | 0.00 | 90 | 1019.8 |
| 20260906115230 | 36 | 247 | 0.0 | 0.0 | 0.00 | 0.00 | 0.00 | 89 | 1019.8 |
| 20260906114231 | 36 | 247 | 0.0 | 0.0 | 0.00 | 0.00 | 0.00 | 90 | 1019.6 |
| 20260906113229 | 36 | 247 | 0.0 | 0.0 | 0.00 | 0.00 | 0.00 | 90 | 1019.8 |
| 20260906111246 | 36 | 247 | 0.0 | 0.0 | 0.00 | 0.00 | 0.00 | 90 | 1019.7 |
| 20260906110329 | 37 | 247 | 0.0 | 0.0 | 0.00 | 0.00 | 0.00 | 90 | 1019.7 |
| 20260906110231 | 37 | 247 | 0.0 | 0.0 | 0.00 | 0.00 | 0.00 | 89 | 1019.6 |
| 20260906105230 | 37 | 247 | 0.0 | 0.0 | 0.00 | 0.00 | 0.00 | 90 | 1019.8 |
| 20260906105129 | 37 | 247 | 0.0 | 0.0 | 0.00 | 0.00 | 0.00 | 90 | 1019.8 |
| 20260906104131 | 37 | 247 | 0.0 | 0.0 | 0.00 | 0.00 | 0.00 | 89 | 1019.8 |
| 20260906103230 | 37 | 247 | 0.0 | 0.0 | 0.00 | 0.00 | 0.00 | 89 | 1020.0 |
| 20260906102328 | 37 | 247 | 0.0 | 0.0 | 0.00 | 0.00 | 0.00 | 88 | 1019.9 |
| 20260906101330 | 37 | 247 | 0.0 | 0.0 | 0.00 | 0.00 | 0.00 | 89 | 1020.0 |
| 20260906100330 | 38 | 247 | 0.0 | 0.0 | 0.00 | 0.00 | 0.00 | 88 | 1020.0 |
| 20260906095429 | 38 | 247 | 0.0 | 0.0 | 0.00 | 0.00 | 0.00 | 87 | 1020.0 |
| 20260906095328 | 38 | 247 | 0.0 | 0.0 | 0.00 | 0.00 | 0.00 | 88 | 1020.0 |
| 20260906094428 | 38 | 247 | 0.0 | 0.0 | 0.00 | 0.00 | 0.00 | 87 | 1020.1 |
| 20260906093430 | 38 | 247 | 0.0 | 0.0 | 0.00 | 0.00 | 0.00 | 86 | 1020.2 |
| 20260906091529 | 38 | 247 | 0.0 | 0.0 | 0.00 | 0.00 | 0.00 | 88 | 1020.2 |
| 20260906090628 | 38 | 247 | 0.0 | 0.0 | 0.00 | 0.00 | 0.00 | 87 | 1020.2 |
| 20260906085528 | 38 | 247 | 0.0 | 0.0 | 0.00 | 0.00 | 0.00 | 87 | 1020.3 |
| 20260906084529 | 38 | 247 | 0.0 | 0.0 | 0.00 | 0.00 | 0.00 | 85 | 1020.4 |
| 20260906083628 | 38 | 247 | 0.0 | 0.0 | 0.00 | 0.00 | 0.00 | 86 | 1020.4 |
| 20260906082630 | 39 | 247 | 0.0 | 0.0 | 0.00 | 0.00 | 0.00 | 85 | 1020.4 |
| 20260906075730 | 39 | 247 | 0.0 | 0.0 | 0.00 | 0.00 | 0.00 | 84 | 1020.4 |
| 20260906074732 | 40 | 247 | 0.0 | 0.0 | 0.00 | 0.00 | 0.00 | 82 | 1020.4 |
| 20260906073828 | 40 | 247 | 0.0 | 0.0 | 0.00 | 0.00 | 0.00 | 82 | 1020.4 |
| 20260906072828 | 40 | 247 | 0.0 | 0.0 | 0.00 | 0.00 | 0.00 | 82 | 1020.4 |
| 20260906072746 | 40 | 247 | 0.0 | 0.0 | 0.00 | 0.00 | 0.00 | 81 | 1020.4 |
| 20260906070828 | 41 | 247 | 0.0 | 0.0 | 0.00 | 0.00 | 0.00 | 80 | 1020.6 |
| 20260906064918 | 41 | 247 | 0.0 | 0.0 | 0.00 | 0.00 | 0.00 | 78 | 1020.7 |
| 20260906063919 | 42 | 247 | 0.0 | 0.0 | 0.00 | 0.00 | 0.00 | 78 | 1020.6 |
| 20260906063016 | 42 | 247 | 0.0 | 0.0 | 0.00 | 0.00 | 0.00 | 77 | 1020.8 |
| 20260906062017 | 42 | 247 | 0.0 | 0.0 | 0.00 | 0.00 | 0.00 | 76 | 1020.8 |
| 20260906061021 | 43 | 247 | 0.0 | 0.0 | 0.00 | 0.00 | 0.00 | 77 | 1020.8 |
| 20260906060117 | 43 | 247 | 0.0 | 0.0 | 0.00 | 0.00 | 0.00 | 76 | 1020.9 |
| 20260906055117 | 43 | 247 | 0.0 | 0.0 | 0.00 | 0.00 | 0.00 | 76 | 1020.8 |
| 20260906053216 | 44 | 247 | 0.0 | 0.0 | 0.00 | 0.00 | 0.00 | 75 | 1021.0 |
| 20260906052218 | 44 | 247 | 0.0 | 0.0 | 0.00 | 0.00 | 0.00 | 73 | 1021.0 |
| 20260906051317 | 44 | 247 | 0.0 | 0.0 | 0.00 | 0.00 | 0.00 | 73 | 1021.1 |
| 20260906051216 | 44 | 247 | 0.0 | 0.0 | 0.00 | 0.00 | 0.00 | 73 | 1021.2 |
| 20260906050217 | 45 | 247 | 0.0 | 0.0 | 0.00 | 0.00 | 0.00 | 72 | 1021.2 |
| 20260906045218 | 45 | 247 | 0.0 | 0.0 | 0.00 | 0.00 | 0.00 | 71 | 1021.3 |
| 20260906043316 | 46 | 247 | 0.0 | 0.0 | 0.00 | 0.00 | 0.00 | 69 | 1021.2 |
| 20260906042320 | 47 | 247 | 0.0 | 0.0 | 0.00 | 0.00 | 0.00 | 67 | 1021.2 |
| 20260906041318 | 48 | 247 | 0.0 | 0.0 | 0.00 | 0.00 | 0.00 | 67 | 1021.1 |
| 20260906040334 | 48 | 247 | 0.0 | 0.0 | 0.00 | 0.00 | 0.00 | 66 | 1021.0 |
| 20260906035416 | 49 | 247 | 0.0 | 0.0 | 0.00 | 0.00 | 0.00 | 66 | 1021.0 |
| 20260906034417 | 49 | 247 | 0.0 | 0.0 | 0.00 | 0.00 | 0.00 | 64 | 1020.9 |
| 20260906034319 | 49 | 247 | 0.0 | 0.0 | 0.00 | 0.00 | 0.00 | 64 | 1020.9 |
| 20260906034219 | 49 | 247 | 0.0 | 0.0 | 0.00 | 0.00 | 0.00 | 64 | 1020.9 |
| 20260906033316 | 50 | 247 | 0.0 | 0.0 | 0.00 | 0.00 | 0.00 | 64 | 1020.9 |
| 20260906031318 | 51 | 247 | 0.0 | 0.0 | 0.00 | 0.00 | 0.00 | 62 | 1020.5 |
| 20260906030415 | 52 | 247 | 0.0 | 0.0 | 0.00 | 0.00 | 0.00 | 63 | 1020.4 |
| 20260906025417 | 53 | 247 | 0.0 | 0.0 | 0.00 | 0.00 | 0.00 | 61 | 1020.3 |
| 20260906024417 | 53 | 247 | 0.0 | 0.0 | 0.00 | 0.00 | 0.00 | 62 | 1020.4 |
| 20260906023418 | 54 | 247 | 0.0 | 0.0 | 0.00 | 0.00 | 0.00 | 61 | 1020.3 |
| 20260906022419 | 56 | 247 | 0.0 | 0.0 | 0.00 | 0.00 | 0.00 | 59 | 1020.3 |
| 20260906020518 | 58 | 247 | 0.0 | 0.0 | 0.00 | 0.00 | 0.00 | 55 | 1020.6 |
| 20260906015517 | 59 | 247 | 0.0 | 0.0 | 0.00 | 0.00 | 0.00 | 53 | 1020.6 |
| 20260906014518 | 61 | 247 | 0.0 | 0.0 | 0.00 | 0.00 | 0.00 | 51 | 1020.6 |
| 20260906014417 | 61 | 247 | 0.0 | 1.0 | 0.00 | 0.00 | 0.00 | 51 | 1020.6 |
| 20260906013317 | 63 | 247 | 0.0 | 1.0 | 0.00 | 0.00 | 0.00 | 48 | 1020.6 |
| 20260906012318 | 64 | 247 | 0.0 | 0.0 | 0.00 | 0.00 | 0.00 | 45 | 1020.4 |
| 20260906011317 | 66 | 180 | 0.0 | 0.0 | 0.00 | 0.00 | 0.00 | 41 | 1020.4 |
| 20260906010234 | 69 | 180 | 0.0 | 0.0 | 0.00 | 0.00 | 0.00 | 38 | 1020.3 |
| 20260906005218 | 71 | 225 | 1.0 | 3.0 | 0.00 | 0.00 | 0.00 | 36 | 1020.2 |
| 20260906004315 | 71 | 225 | 1.0 | 2.0 | 0.00 | 0.00 | 0.00 | 35 | 1020.2 |
| 20260906004220 | 71 | 225 | 2.0 | 4.0 | 0.00 | 0.00 | 0.00 | 35 | 1020.2 |
| 20260906003216 | 72 | 225 | 1.0 | 4.0 | 0.00 | 0.00 | 0.00 | 33 | 1020.0 |
| 20260906002218 | 72 | 237 | 2.0 | 4.0 | 0.00 | 0.00 | 0.00 | 33 | 1020.1 |
| 20260906002117 | 72 | 258 | 1.0 | 3.0 | 0.00 | 0.00 | 0.00 | 33 | 1020.1 |
| 20260906000118 | 72 | 70 | 3.0 | 3.0 | 0.00 | 0.00 | 0.00 | 33 | 1020.2 |
| 20260905235118 | 72 | 227 | 3.0 | 6.0 | 0.00 | 0.00 | 0.00 | 33 | 1020.1 |
| 20260905234118 | 73 | 247 | 0.0 | 0.0 | 0.00 | 0.00 | 0.00 | 31 | 1020.2 |
| 20260905233119 | 73 | 118 | 2.0 | 4.0 | 0.00 | 0.00 | 0.00 | 30 | 1020.2 |
| 20260905232118 | 73 | 232 | 1.0 | 5.0 | 0.00 | 0.00 | 0.00 | 30 | 1020.1 |
| 20260905231118 | 73 | 137 | 2.0 | 4.0 | 0.00 | 0.00 | 0.00 | 31 | 1020.2 |
| 20260905230117 | 73 | 239 | 0.0 | 1.0 | 0.00 | 0.00 | 0.00 | 29 | 1020.3 |
| 20260905225119 | 73 | 274 | 3.0 | 6.0 | 0.00 | 0.00 | 0.00 | 29 | 1020.3 |
| 20260905224117 | 73 | 307 | 2.0 | 4.0 | 0.00 | 0.00 | 0.00 | 26 | 1020.3 |
| 20260905223116 | 73 | 360 | 0.0 | 1.0 | 0.00 | 0.00 | 0.00 | 28 | 1020.2 |
| 20260905223017 | 73 | 337 | 2.0 | 5.0 | 0.00 | 0.00 | 0.00 | 28 | 1020.2 |
| 20260905222018 | 73 | 180 | 2.0 | 5.0 | 0.00 | 0.00 | 0.00 | 28 | 1020.4 |
| 20260905221019 | 72 | 243 | 3.0 | 7.0 | 0.00 | 0.00 | 0.00 | 29 | 1020.5 |
| 20260905220917 | 73 | 242 | 3.0 | 6.0 | 0.00 | 0.00 | 0.00 | 30 | 1020.4 |
| 20260905215017 | 72 | 270 | 0.0 | 1.0 | 0.00 | 0.00 | 0.00 | 33 | 1020.4 |
| 20260905214017 | 72 | 343 | 0.0 | 4.0 | 0.00 | 0.00 | 0.00 | 34 | 1020.6 |
| 20260905213115 | 71 | 192 | 0.0 | 2.0 | 0.00 | 0.00 | 0.00 | 37 | 1020.5 |
| 20260905212117 | 72 | 190 | 4.0 | 7.0 | 0.00 | 0.00 | 0.00 | 36 | 1020.7 |
| 20260905211119 | 71 | 210 | 2.0 | 7.0 | 0.00 | 0.00 | 0.00 | 37 | 1020.6 |
| 20260905205117 | 73 | 212 | 2.0 | 7.0 | 0.00 | 0.00 | 0.00 | 35 | 1020.4 |
| 20260905205018 | 73 | 120 | 3.0 | 5.0 | 0.00 | 0.00 | 0.00 | 36 | 1020.4 |
| 20260905204017 | 72 | 241 | 1.0 | 3.0 | 0.00 | 0.00 | 0.00 | 36 | 1020.3 |
| 20260905203018 | 72 | 5 | 1.0 | 4.0 | 0.00 | 0.00 | 0.00 | 36 | 1020.3 |
| 20260905202916 | 72 | 75 | 1.0 | 6.0 | 0.00 | 0.00 | 0.00 | 35 | 1020.3 |
| 20260905200917 | 73 | 284 | 2.0 | 5.0 | 0.00 | 0.00 | 0.00 | 35 | 1020.2 |
| 20260905200016 | 72 | 138 | 1.0 | 3.0 | 0.00 | 0.00 | 0.00 | 35 | 1020.2 |
| 20260905195018 | 72 | 237 | 5.0 | 9.0 | 0.00 | 0.00 | 0.00 | 33 | 1020.0 |
| 20260905194016 | 73 | 247 | 4.0 | 8.0 | 0.00 | 0.00 | 0.00 | 33 | 1020.0 |
| 20260905193017 | 72 | 204 | 2.0 | 3.0 | 0.00 | 0.00 | 0.00 | 33 | 1020.2 |
| 20260905192115 | 72 | 231 | 1.0 | 3.0 | 0.00 | 0.00 | 0.00 | 33 | 1020.2 |
| 20260905191116 | 72 | 230 | 2.0 | 7.0 | 0.00 | 0.00 | 0.00 | 33 | 1020.1 |
| 20260905183216 | 71 | 35 | 1.0 | 4.0 | 0.00 | 0.00 | 0.00 | 36 | 1020.0 |
| 20260905183115 | 71 | 82 | 3.0 | 4.0 | 0.00 | 0.00 | 0.00 | 36 | 1020.0 |
| 20260905181116 | 69 | 40 | 4.0 | 6.0 | 0.00 | 0.00 | 0.00 | 37 | 1020.1 |
| 20260905175215 | 67 | 135 | 2.0 | 3.0 | 0.00 | 0.00 | 0.00 | 36 | 1020.2 |
| 20260905174216 | 68 | 132 | 3.0 | 4.0 | 0.00 | 0.00 | 0.00 | 34 | 1020.1 |
| 20260905174118 | 69 | 112 | 0.0 | 3.0 | 0.00 | 0.00 | 0.00 | 35 | 1020.2 |
| 20260905172217 | 68 | 135 | 0.0 | 0.0 | 0.00 | 0.00 | 0.00 | 37 | 1020.0 |
| 20260905172116 | 68 | 48 | 1.0 | 2.0 | 0.00 | 0.00 | 0.00 | 37 | 1020.1 |
| 20260905171117 | 68 | 159 | 0.0 | 1.0 | 0.00 | 0.00 | 0.00 | 36 | 1020.0 |
| 20260905170116 | 67 | 153 | 0.0 | 2.0 | 0.00 | 0.00 | 0.00 | 38 | 1020.1 |
| 20260905165116 | 66 | 99 | 0.0 | 2.0 | 0.00 | 0.00 | 0.00 | 41 | 1020.0 |
| 20260905163116 | 64 | 225 | 0.0 | 0.0 | 0.00 | 0.00 | 0.00 | 49 | 1020.0 |
| 20260905161216 | 58 | 225 | 0.0 | 0.0 | 0.00 | 0.00 | 0.00 | 67 | 1020.0 |
| 20260905155217 | 53 | 225 | 0.0 | 0.0 | 0.00 | 0.00 | 0.00 | 76 | 1020.0 |
| 20260905154217 | 53 | 225 | 0.0 | 0.0 | 0.00 | 0.00 | 0.00 | 78 | 1020.2 |
| 20260905153218 | 50 | 225 | 0.0 | 0.0 | 0.00 | 0.00 | 0.00 | 84 | 1020.0 |
| 20260905152217 | 48 | 225 | 0.0 | 0.0 | 0.00 | 0.00 | 0.00 | 86 | 1020.0 |
| 20260905151315 | 45 | 225 | 0.0 | 0.0 | 0.00 | 0.00 | 0.00 | 92 | 1019.7 |
| 20260905145316 | 39 | 225 | 0.0 | 0.0 | 0.00 | 0.00 | 0.00 | 98 | 1019.3 |
| 20260905143415 | 37 | 225 | 0.0 | 0.0 | 0.00 | 0.00 | 0.00 | 98 | 1019.1 |
| 20260905143316 | 37 | 225 | 0.0 | 0.0 | 0.00 | 0.00 | 0.00 | 98 | 1019.1 |
| 20260905142317 | 36 | 157 | 0.0 | 0.0 | 0.00 | 0.00 | 0.00 | 98 | 1019.0 |
| 20260905141316 | 36 | 157 | 0.0 | 0.0 | 0.00 | 0.00 | 0.00 | 98 | 1018.9 |
| 20260905140317 | 36 | 157 | 0.0 | 0.0 | 0.00 | 0.00 | 0.00 | 98 | 1019.0 |
| 20260905135415 | 36 | 157 | 0.0 | 0.0 | 0.00 | 0.00 | 0.00 | 98 | 1019.0 |
| 20260905134514 | 36 | 157 | 0.0 | 0.0 | 0.00 | 0.00 | 0.00 | 97 | 1018.9 |